Regional Weather Roundup
Issued by NWS

Home | Current Version | Previous Version | Text Only | Print | Product List | Glossary On
Versions: 1 2 3 4 5 6 7 8 9 10 11 12 13 14 15 16 17 18 19 20 21 22 23 24 25 26 27
000
ASUS45 KBOI 171610
RWRID
WEATHER ROUNDUP FOR IDAHO
NATIONAL WEATHER SERVICE BOISE ID
1000 AM MDT THU APR 17 2014

NOTE: "FAIR" INDICATES FEW OR NO CLOUDS BELOW 12000 FEET
WITH NO SIGNIFICANT WEATHER AND/OR OBSTRUCTIONS TO VISIBILITY

IDZ012-014-171700-
SOUTHWEST IDAHO


CITY           SKY/WX    TMP DP  RH WIND       PRES   REMARKS
BOISE          SUNNY     56  24  29 SE16      29.92F
CALDWELL       SUNNY     54  27  35 SE14      29.94F
MOUNTAIN HOME  SUNNY     52  23  32 E18       29.95F
$$

IDZ016-017-171700-
SOUTHCENTRAL IDAHO


CITY           SKY/WX    TMP DP  RH WIND       PRES   REMARKS
BURLEY         SUNNY     49  25  39 E6        30.00F
JEROME         SUNNY     52  23  32 E9        30.00F
TWIN FALLS     SUNNY     57  23  26 E5        29.99S
$$

IDZ019>023-171700-
SOUTHEAST IDAHO


CITY           SKY/WX    TMP DP  RH WIND       PRES   REMARKS
IDAHO FALLS    MOSUNNY   49  21  33 SW16      30.03F
POCATELLO      SUNNY     53  19  26 VRB3      30.03F
REXBURG        SUNNY     47  19  33 S15       30.02F
$$

IDZ006-010-011-018-031-032-171700-
CENTRAL IDAHO MOUNTAINS


CITY           SKY/WX    TMP DP  RH WIND       PRES   REMARKS
MCCALL         CLOUDY    38  25  59 CALM      29.93F
HAILEY         MOSUNNY   45  19  36 NW6       30.01
STANLEY          N/A     30  19  63 CALM      30.01F
SALMON         PTSUNNY   41  21  45 N6        29.97F
CHALLIS        MOSUNNY   43  20  39 N5        29.98F
$$

IDZ002-004-006-007-026-171700-
NORTHERN IDAHO


CITY           SKY/WX    TMP DP  RH WIND       PRES   REMARKS
LEWISTON       LGT RAIN  49  41  74 NE3       29.87F
LOWELL           N/A     49  38  65 VRB3      29.93F
COEUR D`ALENE  CLOUDY    45  43  93 S12       29.85F
MULLAN PASS    SNOW      31  31 100 S5        29.83F VSB<1/4 WCI  26
$$



USA.gov is the U.S. government's official web portal to all federal, state and local government web resources and services.